When you browse on this site, cookies collect data to enhance your experience and personalize the content and advertising you see.
Visit our Privacy Policy to learn more. By continuing to use the site, you agree to this use of cookies and data.
  • en France
  • Liste des pays
  • À 7 jours
  • Température de l'eau
  • Carte satellitaire
  • Carte météo
  • Widgets météo
  • user-avatar
    Se connecter

    Météo par heure à Banja Luka

    Ce jour, 23 Mars, Samedi

    Heure Température Précipitation Vent Pression Humidité
    00:00 +6°C° 0 mm 1 m/s 722 mmHg 72%
    01:00 +5°C° 0 mm 1 m/s 722 mmHg 72%
    02:00 +5°C° 0 mm 1 m/s 721 mmHg 72%
    03:00 +5°C° 0 mm 1 m/s 721 mmHg 73%
    04:00 +5°C° 0 mm 1 m/s 721 mmHg 74%
    05:00 +4°C° 0 mm 0 m/s 721 mmHg 72%
    06:00 +5°C° 0 mm 0 m/s 721 mmHg 70%
    07:00 +7°C° 0 mm 1 m/s 722 mmHg 65%
    08:00 +9°C° 0 mm 1 m/s 722 mmHg 58%
    09:00 +12°C° 0 mm 1 m/s 722 mmHg 52%
    10:00 +14°C° 0 mm 1 m/s 722 mmHg 45%
    11:00 +15°C° 0 mm 2 m/s 722 mmHg 45%
    12:00 +16°C° 0 mm 2 m/s 722 mmHg 44%
    13:00 +16°C° 0 mm 2 m/s 721 mmHg 44%
    14:00 +16°C° 0 mm 2 m/s 721 mmHg 46%
    15:00 +16°C° 0 mm 2 m/s 721 mmHg 48%
    16:00 +16°C° 0 mm 2 m/s 720 mmHg 50%
    17:00 +13°C° 0 mm 2 m/s 720 mmHg 60%
    18:00 +11°C° 0 mm 1 m/s 720 mmHg 70%
    19:00 +8°C° 0 mm 0 m/s 720 mmHg 79%
    20:00 +8°C° 0 mm 0 m/s 720 mmHg 81%
    21:00 +7°C° 0 mm 0 m/s 720 mmHg 83%
    22:00 +7°C° 0 mm 0 m/s 720 mmHg 85%
    23:00 +6°C° 0 mm 0 m/s 720 mmHg 85%

    Demain, 24 Mars, Dimanche

    Heure Température Précipitation Vent Pression Humidité
    00:00 +7°C° 0 mm 1 m/s 720 mmHg 86%
    01:00 +7°C° 0 mm 1 m/s 720 mmHg 87%
    02:00 +6°C° 0 mm 1 m/s 720 mmHg 86%
    03:00 +6°C° 0 mm 1 m/s 720 mmHg 86%
    04:00 +6°C° 0 mm 1 m/s 720 mmHg 86%
    05:00 +6°C° 0 mm 1 m/s 720 mmHg 81%
    06:00 +7°C° 0 mm 1 m/s 720 mmHg 77%
    07:00 +7°C° 0 mm 1 m/s 720 mmHg 73%
    08:00 +10°C° 0 mm 1 m/s 720 mmHg 60%
    09:00 +13°C° 0 mm 1 m/s 720 mmHg 48%
    10:00 +16°C° 0 mm 1 m/s 720 mmHg 35%
    11:00 +19°C° 0 mm 1 m/s 720 mmHg 33%
    12:00 +20°C° 0 mm 1 m/s 720 mmHg 30%
    13:00 +21°C° 0 mm 1 m/s 720 mmHg 27%
    14:00 +21°C° 0 mm 1 m/s 719 mmHg 28%
    15:00 +20°C° 0 mm 1 m/s 719 mmHg 29%
    16:00 +20°C° 0 mm 1 m/s 718 mmHg 30%
    17:00 +16°C° 0 mm 1 m/s 718 mmHg 38%
    18:00 +13°C° 0 mm 0 m/s 717 mmHg 46%
    19:00 +10°C° 0 mm 0 m/s 717 mmHg 53%
    20:00 +10°C° 0 mm 0 m/s 717 mmHg 55%
    21:00 +10°C° 0 mm 1 m/s 716 mmHg 57%
    22:00 +10°C° 0 mm 1 m/s 716 mmHg 59%
    23:00 +9°C° 0 mm 1 m/s 716 mmHg 60%

    Après-demain, 25 Mars, Lundi

    Heure Température Précipitation Vent Pression Humidité
    00:00 +9°C° 0 mm 1 m/s 716 mmHg 62%
    01:00 +9°C° 0 mm 1 m/s 716 mmHg 64%
    02:00 +8°C° 0 mm 1 m/s 715 mmHg 65%
    03:00 +8°C° 0 mm 1 m/s 715 mmHg 66%
    04:00 +8°C° 0 mm 1 m/s 715 mmHg 67%
    05:00 +8°C° 0 mm 1 m/s 714 mmHg 66%
    06:00 +9°C° 0 mm 1 m/s 714 mmHg 65%
    07:00 +9°C° 0 mm 1 m/s 714 mmHg 63%
    08:00 +12°C° 0 mm 1 m/s 715 mmHg 55%
    09:00 +15°C° 0 mm 0 m/s 715 mmHg 47%
    10:00 +18°C° 0 mm 0 m/s 715 mmHg 39%
    11:00 +18°C° 0 mm 0 m/s 715 mmHg 36%
    12:00 +21°C° 0 mm 1 m/s 714 mmHg 34%
    13:00 +21°C° 0 mm 1 m/s 714 mmHg 32%
    14:00 +21°C° 0 mm 1 m/s 713 mmHg 33%
    15:00 +20°C° 0 mm 1 m/s 712 mmHg 34%
    16:00 +19°C° 0 mm 1 m/s 712 mmHg 36%
    17:00 +16°C° 0 mm 2 m/s 712 mmHg 47%
    18:00 +14°C° 0 mm 2 m/s 712 mmHg 58%
    19:00 +12°C° 0 mm 2 m/s 713 mmHg 70%
    20:00 +9°C° 1.6 mm 3 m/s 713 mmHg 76%
    21:00 +6°C° 1.6 mm 4 m/s 714 mmHg 81%
    22:00 +3°C° 1.6 mm 5 m/s 715 mmHg 87%
    23:00 +3°C° 0.9 mm 4 m/s 715 mmHg 87%

    26 Mars, Mardi

    Heure Température Précipitation Vent Pression Humidité
    00:00 +3°C° 0.9 mm 4 m/s 716 mmHg 86%
    01:00 +2°C° 0.9 mm 3 m/s 716 mmHg 85%
    02:00 +2°C° 0.2 mm 3 m/s 716 mmHg 85%
    03:00 +1°C° 0.2 mm 3 m/s 716 mmHg 86%
    04:00 +1°C° 0.2 mm 3 m/s 716 mmHg 86%
    05:00 +1°C° 0.1 mm 3 m/s 717 mmHg 85%
    06:00 +1°C° 0.1 mm 3 m/s 717 mmHg 84%
    07:00 +2°C° 0.1 mm 2 m/s 717 mmHg 82%
    08:00 +2°C° 0.1 mm 3 m/s 718 mmHg 80%
    09:00 +2°C° 0.1 mm 3 m/s 718 mmHg 77%
    10:00 +3°C° 0.1 mm 4 m/s 719 mmHg 75%
    11:00 +3°C° 0.2 mm 4 m/s 719 mmHg 72%
    12:00 +3°C° 0.2 mm 5 m/s 719 mmHg 68%
    13:00 +3°C° 0.2 mm 5 m/s 719 mmHg 65%
    14:00 +5°C° 0 mm 5 m/s 719 mmHg 62%
    15:00 +5°C° 0 mm 5 m/s 719 mmHg 60%
    16:00 +5°C° 0 mm 5 m/s 719 mmHg 57%
    17:00 +4°C° 0 mm 4 m/s 719 mmHg 63%
    18:00 +3°C° 0 mm 3 m/s 719 mmHg 70%
    19:00 +2°C° 0 mm 2 m/s 720 mmHg 76%
    20:00 +2°C° 0 mm 2 m/s 720 mmHg 81%
    21:00 +1°C° 0 mm 2 m/s 720 mmHg 85%
    22:00 +2°C° 0 mm 1 m/s 721 mmHg 89%
    23:00 +1°C° 0 mm 1 m/s 721 mmHg 89%

    27 Mars, Mercredi

    Heure Température Précipitation Vent Pression Humidité
    00:00 +1°C° 0 mm 1 m/s 721 mmHg 90%
    01:00 0°C° 0 mm 0 m/s 721 mmHg 90%
    02:00 -1°C° 0 mm 0 m/s 721 mmHg 90%
    03:00 0°C° 0 mm 1 m/s 721 mmHg 91%
    04:00 -1°C° 0 mm 1 m/s 720 mmHg 92%
    05:00 -1°C° 0 mm 0 m/s 721 mmHg 87%
    06:00 0°C° 0 mm 0 m/s 721 mmHg 83%
    07:00 +1°C° 0 mm 0 m/s 721 mmHg 78%
    08:00 +3°C° 0 mm 1 m/s 722 mmHg 70%
    09:00 +4°C° 0 mm 2 m/s 722 mmHg 62%
    10:00 +6°C° 0 mm 2 m/s 722 mmHg 54%
    11:00 +5°C° 0 mm 3 m/s 722 mmHg 53%
    12:00 +7°C° 0 mm 3 m/s 722 mmHg 53%
    13:00 +7°C° 0 mm 3 m/s 722 mmHg 53%
    14:00 +7°C° 0 mm 3 m/s 722 mmHg 55%
    15:00 +7°C° 0 mm 3 m/s 721 mmHg 57%
    16:00 +5°C° 0 mm 3 m/s 721 mmHg 58%
    17:00 +4°C° 0 mm 3 m/s 721 mmHg 66%
    18:00 +4°C° 0 mm 2 m/s 721 mmHg 73%
    19:00 +2°C° 0 mm 2 m/s 721 mmHg 81%
    20:00 +3°C° 0 mm 1 m/s 722 mmHg 83%
    21:00 +2°C° 0 mm 1 m/s 722 mmHg 85%
    22:00 +1°C° 0 mm 1 m/s 722 mmHg 87%
    23:00 +2°C° 0 mm 1 m/s 722 mmHg 87%

    28 Mars, Jeudi

    Heure Température Précipitation Vent Pression Humidité
    00:00 +2°C° 0 mm 1 m/s 722 mmHg 87%
    01:00 +1°C° 0 mm 0 m/s 722 mmHg 86%
    02:00 +1°C° 0 mm 1 m/s 722 mmHg 88%
    03:00 +1°C° 0 mm 1 m/s 722 mmHg 90%
    04:00 0°C° 0 mm 1 m/s 722 mmHg 93%
    05:00 +1°C° 0 mm 1 m/s 722 mmHg 87%
    06:00 +2°C° 0 mm 1 m/s 723 mmHg 82%
    07:00 +2°C° 0 mm 1 m/s 723 mmHg 76%
    08:00 +2°C° 0 mm 3 m/s 723 mmHg 68%
    09:00 +4°C° 0 mm 4 m/s 724 mmHg 60%
    10:00 +5°C° 0 mm 5 m/s 724 mmHg 52%
    11:00 +6°C° 0 mm 5 m/s 724 mmHg 51%
    12:00 +7°C° 0 mm 5 m/s 724 mmHg 50%
    13:00 +8°C° 0 mm 5 m/s 724 mmHg 48%
    14:00 +7°C° 0 mm 5 m/s 723 mmHg 50%
    15:00 +7°C° 0 mm 5 m/s 723 mmHg 52%
    16:00 +7°C° 0 mm 5 m/s 723 mmHg 54%
    17:00 +6°C° 0 mm 4 m/s 723 mmHg 62%
    18:00 +5°C° 0 mm 3 m/s 723 mmHg 70%
    19:00 +4°C° 0 mm 2 m/s 723 mmHg 77%
    20:00 +4°C° 0 mm 1 m/s 723 mmHg 82%
    21:00 +3°C° 0 mm 1 m/s 724 mmHg 86%
    22:00 +3°C° 0 mm 1 m/s 724 mmHg 90%
    23:00 +1°C° 0 mm 0 m/s 724 mmHg 91%
    Voir plus